{"data":{"norad_id":67776,"epoch":"2026-09-20T04:14:49.249824Z","epoch_age_seconds":114808,"freshness":"FRESH","line1":"1 67776U 26030N   26263.17695891  .00001439  00000+0  21767-3 0  9991","line2":"2 67776  51.9003  68.1754 0000811 123.4879 236.6161 14.79934959 34044","mean_motion":14.79934959,"eccentricity":8.11e-5,"inclination_deg":51.9003,"raan_deg":68.1754,"arg_perigee_deg":123.4879,"mean_anomaly_deg":236.6161,"bstar":0.00021767,"rev_number":3404,"period_min":97.301573372725,"perigee_km":628.96112335556,"apogee_km":630.09776685295,"semimajor_km":7007.6664451043,"source":"CELESTRAK","updated_at":"2026-09-21T09:00:16.830350Z"}}